^^
Your Local Weather - Clay, NY Station Historical Data
 
Daily Summary for June 25, 2017 Units:  English    Metric   Both
« Previous Day
Next Day »
Daily Weekly Monthly Yearly Custom
  Current: High: Low: Average:
Temperature: 72.9 °F 73.1 °F 55.3 °F 62.9 °F
Dew Point: 50.3 °F 58.1 °F 46.6 °F 54.3 °F
Humidity: 45% 93% 41% 76%
Wind Speed: 4.0mph 5.0mph 0.0mph 1.5mph
Wind Gust: 4.0mph 11.0mph - -
WindSouth - - WSW
Pressure: 29.90 in 29.91 in 29.87 in -
Precipitation: 0.00 in      
Historical Graphs
 
 
Tabular Data for June 25, 2017
Time Temperature Dew Point Pressure Wind Wind Speed Wind Gust Humidity Rainfall Rate (Hourly) solar
00:02 62.4 °F 54.7 °F 29.87 in West 1.0 mph 2.0 mph 76% 0.00 in 0 W/m2
00:08 62.5 °F 54.8 °F 29.87 in WSW 1.0 mph 2.0 mph 76% 0.00 in 0 W/m2
00:14 62.4 °F 55.1 °F 29.87 in Calm   1.0 mph 77% 0.00 in 0 W/m2
00:20 62.2 °F 54.9 °F 29.87 in Calm     77% 0.00 in 0 W/m2
00:26 62.0 °F 55.1 °F 29.87 in WSW 1.0 mph 1.0 mph 78% 0.00 in 0 W/m2
00:32 62.0 °F 55.1 °F 29.87 in WSW 1.0 mph 1.0 mph 78% 0.00 in 0 W/m2
00:38 62.0 °F 55.1 °F 29.87 in West 1.0 mph 1.0 mph 78% 0.00 in 0 W/m2
00:44 62.0 °F 55.1 °F 29.87 in West 1.0 mph 2.0 mph 78% 0.00 in 0 W/m2
00:50 61.9 °F 55.0 °F 29.87 in Calm     78% 0.00 in 0 W/m2
00:56 61.7 °F 54.8 °F 29.87 in Calm     78% 0.00 in 0 W/m2
01:02 61.5 °F 54.9 °F 29.87 in Calm     79% 0.00 in 0 W/m2
01:08 61.1 °F 54.5 °F 29.87 in Calm     79% 0.00 in 0 W/m2
01:14 60.8 °F 54.9 °F 29.87 in Calm     81% 0.00 in 0 W/m2
01:20 60.2 °F 54.7 °F 29.87 in Calm     82% 0.00 in 0 W/m2
01:26 59.8 °F 54.6 °F 29.88 in Calm     83% 0.00 in 0 W/m2
01:32 59.3 °F 54.1 °F 29.88 in Calm     83% 0.00 in 0 W/m2
01:38 59.0 °F 54.2 °F 29.88 in Calm     84% 0.00 in 0 W/m2
01:44 58.7 °F 54.2 °F 29.88 in Calm     85% 0.00 in 0 W/m2
01:50 58.4 °F 53.9 °F 29.88 in Calm     85% 0.00 in 0 W/m2
01:56 58.2 °F 54.0 °F 29.88 in Calm     86% 0.00 in 0 W/m2
02:02 58.0 °F 54.2 °F 29.88 in Calm     87% 0.00 in 0 W/m2
02:08 57.8 °F 54.0 °F 29.88 in Calm     87% 0.00 in 0 W/m2
02:14 57.6 °F 53.8 °F 29.88 in Calm     87% 0.00 in 0 W/m2
02:20 57.5 °F 54.0 °F 29.88 in Calm     88% 0.00 in 0 W/m2
02:26 57.4 °F 53.9 °F 29.88 in Calm     88% 0.00 in 0 W/m2
02:32 57.3 °F 54.1 °F 29.87 in Calm     89% 0.00 in 0 W/m2
02:38 57.2 °F 54.0 °F 29.87 in Calm     89% 0.00 in 0 W/m2
02:44 57.1 °F 53.9 °F 29.87 in Calm     89% 0.00 in 0 W/m2
02:50 56.9 °F 53.7 °F 29.87 in Calm     89% 0.00 in 0 W/m2
02:56 56.6 °F 53.4 °F 29.87 in Calm     89% 0.00 in 0 W/m2
03:02 56.5 °F 53.3 °F 29.87 in Calm     89% 0.00 in 0 W/m2
03:08 56.4 °F 53.5 °F 29.87 in Calm     90% 0.00 in 0 W/m2
03:14 56.4 °F 53.5 °F 29.87 in Calm     90% 0.00 in 0 W/m2
03:20 56.2 °F 53.3 °F 29.87 in Calm     90% 0.00 in 0 W/m2
03:26 56.1 °F 53.2 °F 29.88 in Calm     90% 0.00 in 0 W/m2
03:32 56.0 °F 53.1 °F 29.88 in Calm     90% 0.00 in 0 W/m2
03:38 55.9 °F 53.0 °F 29.88 in Calm     90% 0.00 in 0 W/m2
03:44 55.9 °F 53.3 °F 29.87 in Calm     91% 0.00 in 0 W/m2
03:50 55.8 °F 53.2 °F 29.87 in Calm     91% 0.00 in 0 W/m2
03:56 55.7 °F 53.1 °F 29.87 in Calm     91% 0.00 in 0 W/m2
04:03 55.9 °F 53.3 °F 29.87 in Calm     91% 0.00 in 0 W/m2
04:08 55.9 °F 53.3 °F 29.88 in Calm     91% 0.00 in 0 W/m2
04:14 55.9 °F 53.3 °F 29.88 in Calm     91% 0.00 in 0 W/m2
04:20 56.1 °F 53.8 °F 29.88 in Calm     92% 0.00 in 0 W/m2
04:26 56.2 °F 53.9 °F 29.88 in Calm     92% 0.00 in 0 W/m2
04:32 56.2 °F 53.9 °F 29.88 in Calm     92% 0.00 in 0 W/m2
04:38 56.1 °F 53.8 °F 29.88 in Calm     92% 0.00 in 0 W/m2
04:44 56.1 °F 53.8 °F 29.87 in Calm     92% 0.00 in 0 W/m2
04:50 56.0 °F 53.7 °F 29.87 in Calm     92% 0.00 in 0 W/m2
04:56 55.7 °F 53.4 °F 29.88 in Calm     92% 0.00 in 0 W/m2
05:02 55.6 °F 53.3 °F 29.88 in Calm     92% 0.00 in 0 W/m2
05:08 55.5 °F 53.2 °F 29.88 in Calm     92% 0.00 in 0 W/m2
05:14 55.3 °F 53.0 °F 29.88 in Calm     92% 0.00 in 0 W/m2
05:20 55.3 °F 53.0 °F 29.88 in Calm     92% 0.00 in 0 W/m2
05:26 55.3 °F 53.0 °F 29.88 in Calm     92% 0.00 in 0 W/m2
05:32 55.3 °F 53.0 °F 29.88 in Calm     92% 0.00 in 5 W/m2
05:38 55.4 °F 53.1 °F 29.88 in Calm     92% 0.00 in 7 W/m2
05:44 55.4 °F 53.1 °F 29.89 in Calm     92% 0.00 in 11 W/m2
05:50 55.3 °F 53.0 °F 29.89 in Calm     92% 0.00 in 12 W/m2
05:56 55.3 °F 53.0 °F 29.88 in Calm     92% 0.00 in 14 W/m2
06:02 55.5 °F 53.2 °F 29.88 in Calm     92% 0.00 in 18 W/m2
06:08 55.5 °F 53.2 °F 29.88 in Calm     92% 0.00 in 21 W/m2
06:14 55.5 °F 53.2 °F 29.88 in Calm     92% 0.00 in 25 W/m2
06:20 55.6 °F 53.6 °F 29.89 in Calm     93% 0.00 in 30 W/m2
06:26 55.8 °F 53.8 °F 29.89 in Calm     93% 0.00 in 98 W/m2
06:32 56.3 °F 54.3 °F 29.89 in Calm     93% 0.00 in 127 W/m2
06:38 57.5 °F 55.5 °F 29.89 in Calm     93% 0.00 in 141 W/m2
06:44 58.0 °F 56.0 °F 29.89 in Calm     93% 0.00 in 151 W/m2
06:50 58.6 °F 56.6 °F 29.90 in Calm     93% 0.00 in 169 W/m2
06:56 59.6 °F 57.6 °F 29.90 in Calm     93% 0.00 in 179 W/m2
07:02 60.1 °F 57.8 °F 29.90 in Calm     92% 0.00 in 197 W/m2
07:08 60.7 °F 58.1 °F 29.90 in WSW 1.0 mph 4.0 mph 91% 0.00 in 211 W/m2
07:14 61.6 °F 57.7 °F 29.90 in SSW 1.0 mph 3.0 mph 87% 0.00 in 230 W/m2
07:20 62.7 °F 57.5 °F 29.90 in Calm     83% 0.00 in 251 W/m2
07:26 63.4 °F 56.8 °F 29.90 in SW 1.0 mph 2.0 mph 79% 0.00 in 265 W/m2
07:32 64.1 °F 57.1 °F 29.90 in South 1.0 mph 1.0 mph 78% 0.00 in 287 W/m2
07:38 64.5 °F 56.8 °F 29.90 in WSW 1.0 mph 1.0 mph 76% 0.00 in 302 W/m2
07:44 64.7 °F 56.2 °F 29.90 in WSW 1.0 mph 1.0 mph 74% 0.00 in 320 W/m2
07:50 65.0 °F 56.9 °F 29.90 in WSW 2.0 mph 2.0 mph 75% 0.00 in 339 W/m2
07:56 65.3 °F 56.4 °F 29.90 in SSW 3.0 mph 5.0 mph 73% 0.00 in 357 W/m2
08:02 65.8 °F 56.5 °F 29.90 in SW 2.0 mph 3.0 mph 72% 0.00 in 373 W/m2
08:08 65.8 °F 56.1 °F 29.90 in SSE 3.0 mph 5.0 mph 71% 0.00 in 392 W/m2
08:14 66.0 °F 55.9 °F 29.90 in WSW 3.0 mph 4.0 mph 70% 0.00 in 410 W/m2
08:20 66.2 °F 56.9 °F 29.90 in SW 3.0 mph 3.0 mph 72% 0.00 in 427 W/m2
08:26 66.4 °F 56.3 °F 29.91 in WNW 3.0 mph 5.0 mph 70% 0.00 in 443 W/m2
08:32 66.5 °F 56.8 °F 29.91 in SW 4.0 mph 4.0 mph 71% 0.00 in 462 W/m2
08:38 66.8 °F 57.1 °F 29.91 in NW 2.0 mph 4.0 mph 71% 0.00 in 480 W/m2
08:44 66.9 °F 57.2 °F 29.91 in WSW 2.0 mph 2.0 mph 71% 0.00 in 499 W/m2
08:50 67.0 °F 56.9 °F 29.91 in SW 3.0 mph 4.0 mph 70% 0.00 in 515 W/m2
08:56 67.2 °F 56.7 °F 29.91 in WSW 4.0 mph 6.0 mph 69% 0.00 in 534 W/m2
09:02 67.8 °F 56.4 °F 29.91 in SSW 3.0 mph 5.0 mph 67% 0.00 in 554 W/m2
09:08 67.9 °F 56.1 °F 29.91 in WSW 3.0 mph 5.0 mph 66% 0.00 in 568 W/m2
09:14 68.0 °F 56.2 °F 29.91 in WSW 4.0 mph 4.0 mph 66% 0.00 in 589 W/m2
09:20 68.6 °F 57.2 °F 29.91 in SW 3.0 mph 3.0 mph 67% 0.00 in 603 W/m2
09:26 68.8 °F 56.1 °F 29.91 in WSW 3.0 mph 5.0 mph 64% 0.00 in 624 W/m2
09:34 69.1 °F 56.4 °F 29.91 in SW 4.0 mph 4.0 mph 64% 0.00 in 645 W/m2
09:40 69.7 °F 56.5 °F 29.91 in SW 2.0 mph 3.0 mph 63% 0.00 in 663 W/m2
09:46 69.7 °F 55.2 °F 29.91 in WNW 3.0 mph 3.0 mph 60% 0.00 in 679 W/m2
09:48 69.7 °F 55.6 °F 29.91 in SW 3.0 mph 3.0 mph 61% 0.00 in 689 W/m2
09:54 69.9 °F 55.4 °F 29.91 in SW 3.0 mph 3.0 mph 60% 0.00 in 698 W/m2
10:00 69.9 °F 56.3 °F 29.91 in WNW 3.0 mph 3.0 mph 62% 0.00 in 714 W/m2
10:06 70.4 °F 57.6 °F 29.91 in North 2.0 mph 3.0 mph 64% 0.00 in 731 W/m2
10:12 70.7 °F 56.6 °F 29.91 in SW 2.0 mph 6.0 mph 61% 0.00 in 759 W/m2
10:18 70.5 °F 56.4 °F 29.91 in SSW 4.0 mph 10.0 mph 61% 0.00 in 773 W/m2
10:24 70.2 °F 55.7 °F 29.91 in SW 5.0 mph 5.0 mph 60% 0.00 in 826 W/m2
10:30 70.5 °F 55.5 °F 29.91 in West 4.0 mph 7.0 mph 59% 0.00 in 353 W/m2
10:36 69.7 °F 55.2 °F 29.91 in SW 4.0 mph 7.0 mph 60% 0.00 in 508 W/m2
10:42 70.3 °F 55.8 °F 29.91 in SW 2.0 mph 3.0 mph 60% 0.00 in 962 W/m2
10:48 70.0 °F 54.5 °F 29.91 in WSW 3.0 mph 3.0 mph 58% 0.00 in 376 W/m2
10:54 70.0 °F 55.0 °F 29.91 in SSW 3.0 mph 4.0 mph 59% 0.00 in 1025 W/m2
11:00 71.8 °F 57.6 °F 29.91 in SW 3.0 mph 3.0 mph 61% 0.00 in 1016 W/m2
11:06 72.3 °F 55.2 °F 29.91 in WSW 3.0 mph 10.0 mph 55% 0.00 in 1002 W/m2
11:12 71.1 °F 54.6 °F 29.91 in WSW 5.0 mph 7.0 mph 56% 0.00 in 385 W/m2
11:18 71.5 °F 54.0 °F 29.91 in WSW 4.0 mph 7.0 mph 54% 0.00 in 995 W/m2
11:24 72.4 °F 55.8 °F 29.91 in WNW 3.0 mph 4.0 mph 56% 0.00 in 1000 W/m2
11:30 72.7 °F 51.3 °F 29.91 in SSW 5.0 mph 5.0 mph 47% 0.00 in 1072 W/m2
11:36 73.1 °F 50.5 °F 29.91 in WSW 5.0 mph 5.0 mph 45% 0.00 in 1222 W/m2
11:42 72.1 °F 53.0 °F 29.91 in NE 5.0 mph 5.0 mph 51% 0.00 in 459 W/m2
11:48 72.0 °F 51.2 °F 29.91 in SSE 5.0 mph 6.0 mph 48% 0.00 in 350 W/m2
11:54 71.5 °F 52.9 °F 29.91 in NW 4.0 mph 4.0 mph 52% 0.00 in 341 W/m2
12:00 71.4 °F 52.3 °F 29.91 in SW 3.0 mph 3.0 mph 51% 0.00 in 504 W/m2
12:06 71.6 °F 53.0 °F 29.91 in West 4.0 mph 4.0 mph 52% 0.00 in 424 W/m2
12:12 72.4 °F 52.2 °F 29.91 in NW 4.0 mph 5.0 mph 49% 0.00 in 1230 W/m2
12:18 70.9 °F 51.9 °F 29.91 in West 4.0 mph 5.0 mph 51% 0.00 in 251 W/m2
12:24 69.8 °F 49.8 °F 29.91 in West 4.0 mph 5.0 mph 49% 0.00 in 225 W/m2
12:30 69.4 °F 47.1 °F 29.91 in WSW 3.0 mph 5.0 mph 45% 0.00 in 209 W/m2
12:36 69.3 °F 47.6 °F 29.91 in WSW 3.0 mph 6.0 mph 46% 0.00 in 394 W/m2
12:42 70.1 °F 48.9 °F 29.91 in WSW 3.0 mph 4.0 mph 47% 0.00 in 533 W/m2
12:48 71.5 °F 46.6 °F 29.91 in SW 3.0 mph 11.0 mph 41% 0.00 in 1102 W/m2
12:54 70.6 °F 48.2 °F 29.90 in West 4.0 mph 5.0 mph 45% 0.00 in 311 W/m2
13:00 70.6 °F 49.4 °F 29.90 in SW 3.0 mph 3.0 mph 47% 0.00 in 1030 W/m2
13:06 72.2 °F 53.6 °F 29.90 in South 3.0 mph 3.0 mph 52% 0.00 in 970 W/m2
13:12 72.9 °F 50.3 °F 29.90 in South 4.0 mph 4.0 mph 45% 0.00 in 970 W/m2
Country Meadow, Clay, NY, USA
Compliments of Weather Underground - 1.75 mb